User: anonymous   Login
Location: Unspecified
(0.0000°N, 0.0000°E)
Time: 19:26:18
(UTC+00:00)
Language:

Amsat-Oscar-8 - Orbit

View from above orbital plane
View from above orbital plane
View from above satellite
View from above satellite

Ground track
Ground track

The orbit data is extracted from the following two-line orbital elements,

1 10703U 78026B   19341.49514916 -.00000243  00000-0 -13727-3 0  9995
2 10703  99.0190 293.6639 0006878   1.0487 110.1111 13.99263423130910
Epoch (UTC): 07 December 2019 11:53:00
Eccentricity: 0.0006878
inclination: 99.0190°
perigee height: 891 km
apogee height: 901 km
right ascension of ascending node: 293.6639°
argument of perigee: 1.0487°
revolutions per day: 13.99263423
mean anomaly at epoch: 110.1111°
orbit number at epoch: 13091

The dashed part of the orbit path shows where the satellite is in the earth's shadow,  

DLR